Date,TemperatureHighF,TemperatureAvgF,TemperatureLowF,DewpointHighF,DewpointAvgF,DewpointLowF,HumidityHigh,HumidityAvg,HumidityLow,PressureMaxIn,PressureMinIn,WindSpeedMaxMPH,WindSpeedAvgMPH,GustSpeedMaxMPH,PrecipitationSumIn
2013-1-1,50.9,48.6,43.5,50.5,46.5,37.2,99,93,69,30.20,29.98,5,0,6,1.05
2013-1-2,50.4,44.6,39.4,50.0,41.7,36.0,99,90,79,30.21,29.97,13,1,13,0.05
2013-1-3,44.6,39.6,36.7,37.4,33.9,28.0,93,80,63,30.38,30.18,11,1,11,0.00
2013-1-4,48.0,38.3,30.2,29.7,25.5,18.7,83,62,31,30.46,30.35,11,0,12,0.00
2013-1-5,49.6,39.2,27.3,38.3,28.3,24.4,90,67,43,30.46,30.32,5,0,6,0.00
2013-1-6,49.8,43.8,40.5,41.7,37.4,34.0,85,78,69,30.35,30.19,12,0,12,0.00
2013-1-7,54.0,42.9,32.4,35.6,32.1,28.6,87,67,42,30.44,30.30,10,1,11,0.00
2013-1-8,51.4,45.6,37.4,41.9,37.2,32.0,81,72,64,30.46,30.35,8,0,9,0.00
2013-1-9,64.9,56.6,48.9,58.3,49.9,41.4,82,78,75,30.47,30.38,5,0,5,0.00
2013-1-10,67.5,60.8,55.9,60.8,56.8,50.9,97,87,77,30.44,30.25,8,0,8,0.04
2013-1-11,68.7,62.7,59.7,65.3,61.9,58.8,100,97,87,30.25,30.14,7,0,8,0.07
2013-1-12,73.4,63.5,58.3,66.2,60.0,56.1,100,89,66,30.19,30.07,9,0,9,0.00
2013-1-13,71.6,64.1,57.6,63.9,60.5,55.8,98,88,73,30.14,30.04,8,0,12,0.00
2013-1-14,64.8,58.6,48.4,64.8,57.7,47.7,100,97,92,30.17,30.04,8,0,9,0.50
2013-1-15,63.7,55.7,48.7,63.7,55.6,48.2,100,100,98,30.16,29.99,4,0,4,0.38
2013-1-16,63.3,58.7,52.7,63.3,58.2,52.0,100,98,95,30.03,29.93,6,0,8,0.40
2013-1-17,53.6,46.1,36.7,53.6,45.4,34.0,100,97,90,30.30,29.80,20,1,20,0.50
2013-1-18,52.5,40.4,32.0,36.0,30.5,24.6,91,71,34,30.57,30.30,11,0,14,0.00
2013-1-19,54.3,41.4,28.6,34.0,30.7,26.2,94,68,39,30.52,30.28,6,0,7,0.00
2013-1-20,59.5,45.6,34.0,40.8,36.1,30.4,89,71,47,30.29,30.15,9,0,11,0.00
2013-1-21,55.0,43.9,33.1,38.1,32.3,19.4,96,67,43,30.23,30.13,13,1,13,0.00
2013-1-22,42.1,35.5,28.9,21.4,17.7,13.6,57,48,35,30.38,30.21,14,1,17,0.00
2013-1-23,53.8,40.9,29.5,39.9,26.4,15.6,75,57,40,30.47,30.25,7,0,8,0.00
2013-1-24,53.2,47.0,37.2,43.2,30.2,11.3,81,55,26,30.40,30.18,13,1,13,0.00
2013-1-25,43.0,37.4,31.3,32.5,22.6,13.5,73,55,43,30.44,30.19,8,0,9,0.00
2013-1-26,57.6,44.9,37.8,38.5,31.5,21.6,92,63,28,30.35,30.20,8,1,11,0.00
2013-1-27,51.1,44.7,38.8,36.3,33.4,28.9,80,65,55,30.51,30.33,7,0,8,0.00
2013-1-28,56.5,47.3,41.7,48.9,40.0,32.0,94,76,65,30.47,30.32,4,0,5,0.00
2013-1-29,72.7,57.9,43.3,62.6,53.4,41.7,96,86,65,30.32,30.01,9,0,9,0.01
2013-1-30,68.7,59.8,41.4,65.3,57.9,36.9,98,94,84,30.01,29.55,11,1,14,1.23
2013-1-31,46.6,39.2,31.6,38.1,28.9,25.5,91,68,46,30.23,29.83,17,1,17,0.00
2013-2-1,40.6,36.6,28.6,32.0,19.0,6.6,76,50,27,30.43,30.19,13,1,16,0.00
2013-2-2,52.5,36.8,23.7,39.6,24.0,12.9,98,65,25,30.43,30.18,14,0,15,0.20
2013-2-3,55.0,43.5,31.5,41.9,33.0,26.2,98,71,35,30.20,30.04,13,1,13,0.00
2013-2-4,52.2,41.5,31.6,33.4,29.9,26.8,85,65,43,30.19,30.06,12,0,14,0.00
2013-2-5,60.4,48.0,34.2,51.4,42.4,30.9,95,82,63,30.10,30.02,8,0,8,0.00
2013-2-6,65.7,52.6,42.1,49.3,40.2,33.1,99,68,30,30.23,30.08,6,0,6,0.00
2013-2-7,51.6,45.8,43.5,44.4,40.8,34.3,97,84,52,30.19,29.92,8,1,9,0.38
2013-2-8,54.3,47.6,37.8,51.3,44.3,33.1,98,89,68,30.22,29.97,12,1,13,0.01
2013-2-9,60.4,45.0,32.4,37.8,32.1,28.2,90,65,31,30.36,30.19,8,0,9,0.00
2013-2-10,60.3,49.9,42.1,52.0,41.7,30.0,98,74,58,30.36,30.06,10,1,11,0.98
2013-2-11,59.0,53.4,47.7,59.0,53.0,46.4,100,99,91,30.18,30.05,11,0,11,0.98
2013-2-12,53.1,47.5,44.4,47.7,43.9,37.4,99,88,57,30.16,29.89,7,0,7,0.31
2013-2-13,54.0,45.4,38.8,51.3,42.7,34.3,100,90,78,30.02,29.78,13,1,13,0.04
2013-2-14,54.9,43.9,37.2,38.7,34.8,32.0,91,72,44,30.15,30.01,13,1,13,0.00
2013-2-15,61.0,47.0,33.4,43.3,36.2,32.4,99,70,39,30.18,30.03,11,0,13,0.00
2013-2-16,44.1,38.1,29.8,35.4,23.9,12.6,79,58,34,30.21,30.00,18,2,21,0.00
2013-2-17,44.6,34.2,23.5,21.6,16.3,9.3,74,50,26,30.37,30.20,13,1,15,0.00
2013-2-18,57.9,42.4,26.1,31.1,26.3,21.2,86,57,32,30.43,30.19,8,0,8,0.00
2013-2-19,56.7,45.9,39.9,48.6,34.0,20.7,98,67,37,30.20,30.06,11,1,13,0.37
2013-2-20,51.1,41.7,32.7,21.6,16.5,8.1,59,38,18,30.26,30.15,14,1,16,0.00
2013-2-21,63.1,49.2,32.9,45.0,25.2,17.2,84,41,23,30.24,30.01,8,0,9,0.07
2013-2-22,48.6,41.8,40.5,44.2,40.7,39.4,98,96,85,30.20,30.08,9,1,10,1.36
2013-2-23,50.2,45.1,40.3,49.1,44.3,39.7,99,97,92,30.10,29.90,8,0,11,1.00
2013-2-24,62.1,50.0,37.9,47.5,37.9,29.1,99,68,31,30.09,29.96,9,0,11,0.00
2013-2-25,47.8,45.0,39.6,39.0,34.7,31.5,95,68,55,30.09,29.90,15,1,15,0.02
2013-2-26,52.5,42.0,36.3,50.2,39.7,35.6,99,92,75,29.91,29.61,12,1,12,1.30
2013-2-27,59.4,48.4,40.5,40.5,36.3,33.8,81,64,42,29.96,29.84,13,1,13,0.00
2013-2-28,50.9,41.8,34.7,36.7,31.4,26.6,88,67,48,30.05,29.90,15,1,18,0.00
2013-3-1,42.1,38.2,34.9,30.6,28.4,25.5,77,68,61,30.07,30.02,10,1,14,0.00
2013-3-2,39.2,35.9,33.4,30.9,28.7,25.0,86,75,62,30.10,30.00,13,1,14,0.00
2013-3-3,41.0,33.8,30.0,25.5,22.6,19.9,77,64,46,30.16,30.06,15,1,16,0.00
2013-3-4,58.8,43.0,25.7,33.6,25.8,19.4,86,55,27,30.26,30.06,6,0,8,0.00
2013-3-5,68.4,53.0,38.8,56.7,44.4,27.7,94,73,59,30.12,29.71,21,1,24,0.09
2013-3-6,41.9,36.8,30.9,31.1,26.7,20.8,82,67,57,30.25,29.93,18,2,21,0.00
2013-3-7,57.7,43.1,31.3,34.2,30.2,27.0,85,63,36,30.33,30.22,9,1,11,0.00
2013-3-8,61.9,47.0,30.7,33.4,28.1,22.8,88,52,27,30.38,30.26,9,0,9,0.00
2013-3-9,62.1,50.8,37.6,36.1,30.9,25.3,65,48,33,30.37,30.24,7,0,8,0.00
2013-3-10,70.7,58.8,48.0,44.6,38.2,33.4,66,47,30,30.25,30.09,6,1,12,0.00
2013-3-11,67.5,56.8,48.6,57.4,52.2,44.6,98,85,64,30.10,29.81,10,0,14,0.92
2013-3-12,57.0,47.7,38.5,47.3,37.4,32.5,97,70,43,30.15,29.87,14,2,16,0.01
2013-3-13,56.1,46.1,36.0,35.2,29.2,20.7,86,55,29,30.31,30.14,19,2,19,0.00
2013-3-14,53.4,41.3,29.1,25.7,20.3,13.5,68,45,21,30.43,30.28,15,1,15,0.00
2013-3-15,74.8,54.8,32.5,45.9,36.8,25.3,93,55,33,30.30,30.03,8,1,12,0.00
2013-3-16,77.7,63.7,50.2,45.7,42.2,36.9,75,48,25,30.05,29.90,8,1,13,0.00
2013-3-17,71.2,61.5,50.2,56.3,50.6,43.5,92,68,51,30.04,29.93,8,0,8,0.00
2013-3-18,65.1,55.5,46.8,57.7,53.0,46.0,98,91,75,30.02,29.83,12,0,12,0.59
2013-3-19,61.9,52.7,44.8,47.7,36.4,23.4,99,60,26,30.11,29.90,14,1,15,0.00
2013-3-20,57.7,49.3,42.4,27.1,22.9,16.7,50,36,24,30.18,29.96,15,1,17,0.00
2013-3-21,48.7,40.5,30.7,30.0,19.6,10.4,74,46,24,30.04,29.95,14,2,18,0.00
2013-3-22,52.5,44.2,37.8,36.1,27.0,16.3,66,51,37,30.13,30.02,5,0,6,0.00
2013-3-23,54.9,48.1,42.6,51.3,45.2,35.6,98,90,65,30.08,29.77,7,0,8,0.90
2013-3-24,51.1,48.2,41.4,50.5,46.6,33.4,98,94,72,29.84,29.55,12,1,12,0.45
2013-3-25,45.5,38.9,34.3,34.0,27.4,23.0,75,64,47,30.14,29.74,19,2,19,0.06
2013-3-26,41.4,36.1,31.5,28.2,25.8,22.8,81,66,54,30.36,30.11,15,1,16,0.03
2013-3-27,53.2,41.4,30.6,29.7,26.5,23.4,82,58,35,30.42,30.30,13,1,14,0.40
2013-3-28,60.1,46.3,31.5,33.6,28.7,19.4,90,55,25,30.41,30.29,15,1,16,0.00
2013-3-29,69.3,53.6,37.6,39.6,34.7,29.3,86,53,29,30.39,30.20,7,0,7,0.00
2013-3-30,74.1,59.5,49.1,56.1,44.4,35.4,97,59,40,30.22,30.05,5,0,7,0.31
2013-3-31,69.8,61.1,55.2,60.3,56.4,53.1,99,86,64,30.06,29.89,7,0,7,0.11
2013-4-1,70.0,61.8,54.7,57.6,48.8,37.6,99,68,31,30.05,29.88,14,1,14,0.25
2013-4-2,66.2,56.6,47.5,43.0,37.0,28.9,70,49,33,30.21,30.05,12,1,12,0.04
2013-4-3,61.7,52.6,45.9,46.8,34.8,26.4,93,53,35,30.22,30.11,8,0,10,0.02
2013-4-4,46.2,42.1,39.0,44.4,40.8,37.9,97,95,93,30.19,30.03,13,1,14,0.02
2013-4-5,63.5,50.0,39.0,50.2,41.8,36.1,99,77,39,30.11,29.99,8,1,12,0.02
2013-4-6,70.3,57.5,42.3,46.8,40.6,37.2,87,57,32,30.25,30.11,7,0,10,0.03
2013-4-7,74.5,60.6,45.1,54.9,47.7,42.1,92,65,39,30.25,30.09,8,0,9,0.02
2013-4-8,78.3,65.2,52.0,59.4,54.1,49.8,96,70,46,30.18,30.06,8,0,10,0.02
2013-4-9,81.7,68.1,54.9,62.2,57.1,53.6,98,71,44,30.20,30.09,5,0,7,0.01
2013-4-10,82.9,69.5,55.9,64.4,58.1,54.5,97,70,46,30.14,29.94,6,0,7,0.01
2013-4-11,79.0,67.3,56.8,68.5,61.7,54.7,98,83,63,29.96,29.68,11,0,11,0.00
2013-4-12,66.7,61.6,55.4,63.5,51.2,38.5,99,72,37,29.95,29.65,11,1,13,0.02
2013-4-13,73.4,61.7,46.6,45.0,41.1,35.2,87,50,27,30.06,29.94,11,1,11,0.00
2013-4-14,59.2,55.0,51.3,55.4,48.6,40.6,96,80,63,30.09,29.91,7,0,8,0.00
2013-4-15,72.0,62.4,55.6,61.9,58.1,54.1,98,87,67,30.17,29.96,5,0,5,0.01
2013-4-16,80.1,68.5,58.1,65.8,61.8,57.4,99,81,56,30.27,30.16,6,0,6,0.00
2013-4-17,82.9,71.7,62.1,67.6,63.1,60.3,95,76,54,30.24,30.09,6,0,7,0.01
2013-4-18,78.6,69.4,59.5,66.0,61.1,58.6,99,76,53,30.10,29.91,9,0,10,0.00
2013-4-19,69.8,65.7,56.7,67.1,61.5,55.0,96,87,73,29.92,29.79,8,0,9,0.00
2013-4-20,60.4,54.9,39.6,38.7,34.6,31.1,77,47,34,30.28,30.19,12,1,13,0.00
2013-4-21,66.6,55.3,41.5,46.8,40.8,35.4,86,60,38,30.37,30.26,9,0,10,0.00
2013-4-22,66.6,57.4,48.4,48.7,44.4,39.6,77,63,47,30.34,30.18,8,1,12,0.00
2013-4-23,70.2,59.1,47.5,52.0,45.7,37.0,83,62,44,30.27,30.11,8,0,8,0.01
2013-4-24,75.7,62.2,52.5,62.6,56.7,50.2,96,83,58,30.16,30.09,6,0,6,0.00
2013-4-25,67.8,57.0,45.5,55.9,40.8,26.2,94,61,22,30.34,30.16,10,0,11,0.01
2013-4-26,72.7,60.4,44.8,50.9,42.1,34.0,74,53,34,30.40,30.28,7,0,7,0.00
2013-4-27,72.7,64.3,57.4,56.8,52.3,46.6,87,66,48,30.34,30.16,6,0,10,0.00
2013-4-28,62.2,58.2,55.6,61.0,57.1,54.7,99,96,87,30.21,30.03,10,0,10,0.00
2013-4-29,70.3,61.6,55.6,63.5,58.8,55.2,100,91,72,30.07,29.95,4,0,4,0.00
2013-4-30,75.9,65.3,57.7,67.3,60.4,57.0,100,86,61,30.12,29.98,5,0,7,0.00
2013-5-1,68.7,63.0,60.3,60.1,57.6,54.9,95,83,68,30.21,30.09,9,0,9,0.01
2013-5-2,67.8,61.5,58.5,61.3,57.7,54.9,95,88,78,30.21,30.13,9,1,11,0.00
2013-5-3,62.8,60.5,58.5,58.3,56.7,54.3,92,87,82,30.15,29.97,9,0,11,0.00
2013-5-4,59.7,53.5,49.5,55.8,52.2,48.6,99,96,81,29.98,29.87,13,0,13,2.71
2013-5-5,54.5,54.0,52.0,54.1,53.6,51.4,99,99,98,29.89,29.84,0,0,0,0.62
2013-5-6,54.0,52.3,51.3,51.8,51.0,50.4,97,95,92,29.94,29.91,0,0,0,2.72
2013-5-7,65.8,56.0,48.6,57.2,52.1,48.0,99,88,66,30.03,29.90,4,0,4,0.00
2013-5-8,74.7,62.0,49.6,61.2,55.2,48.6,99,80,53,30.10,30.00,8,0,10,0.00
2013-5-9,80.1,67.5,55.4,64.9,58.4,54.5,99,75,48,30.15,30.05,5,0,5,0.00
2013-5-10,78.3,67.2,56.7,65.3,60.1,55.6,98,79,58,30.12,29.97,6,0,6,0.00
2013-5-11,75.0,67.4,60.1,67.3,63.1,58.8,98,87,72,30.02,29.89,4,0,5,0.01
2013-5-12,70.3,62.0,54.7,61.0,47.8,33.6,96,63,33,30.12,29.96,10,1,12,0.00
2013-5-13,67.5,57.3,43.3,43.9,37.9,32.2,82,50,30,30.28,30.12,11,0,12,0.00
2013-5-14,77.5,62.5,45.7,57.7,50.0,40.8,95,66,40,30.30,30.14,4,0,4,0.00
2013-5-15,84.7,70.6,57.6,63.5,57.0,54.1,90,65,37,30.20,30.03,6,0,7,0.00
2013-5-16,81.1,70.6,63.0,67.3,60.6,56.8,88,72,51,30.11,30.00,5,0,5,0.00
2013-5-17,80.4,69.9,59.2,68.2,60.5,55.2,95,74,44,30.12,30.02,4,0,5,0.20
2013-5-18,73.0,67.1,60.6,68.2,65.2,60.1,99,94,83,30.11,30.04,4,0,4,0.23
2013-5-19,70.2,66.1,62.8,69.1,65.4,62.1,100,98,92,30.12,30.00,7,0,10,0.57
2013-5-20,82.2,71.4,61.0,74.3,67.0,60.6,100,87,64,30.14,30.02,4,0,4,0.57
2013-5-21,87.4,74.5,64.9,75.9,68.9,64.4,100,84,57,30.06,29.91,6,0,6,0.02
2013-5-22,85.8,74.1,63.9,72.1,66.4,63.0,99,79,57,29.99,29.86,5,0,5,0.01
2013-5-23,82.6,73.6,66.2,66.9,62.8,55.9,96,71,49,29.99,29.92,7,0,8,0.00
2013-5-24,73.9,67.6,60.6,58.6,52.2,44.8,78,59,42,30.23,29.99,20,1,20,0.00
2013-5-25,78.3,64.8,49.8,54.9,48.0,43.7,88,57,32,30.35,30.21,5,0,6,0.00
2013-5-26,83.3,68.5,53.4,58.1,52.2,47.1,88,59,32,30.30,30.16,4,0,5,0.00
2013-5-27,84.9,71.5,57.6,65.7,58.7,53.4,91,66,41,30.25,30.11,4,0,7,0.00
2013-5-28,84.6,73.3,63.1,68.9,61.6,57.0,91,69,41,30.20,30.12,7,0,7,0.00
2013-5-29,82.2,72.1,61.5,67.5,63.6,59.5,95,76,56,30.23,30.13,6,0,7,0.00
2013-5-30,83.3,74.1,65.5,72.1,66.0,62.8,94,77,57,30.25,30.11,5,0,6,0.00
2013-5-31,84.2,75.1,66.6,71.2,66.1,64.0,93,75,54,30.20,30.07,5,0,7,0.00
2013-6-1,82.8,74.9,66.0,72.9,67.5,63.9,94,78,64,30.11,29.99,7,0,7,0.00
2013-6-2,83.7,73.8,67.6,74.1,69.1,66.6,97,86,69,30.02,29.88,7,0,7,0.34
2013-6-3,82.2,74.0,67.1,74.1,68.5,65.7,100,85,61,29.97,29.88,7,0,8,0.00
2013-6-4,87.3,76.6,66.0,72.0,67.0,64.4,96,74,50,30.01,29.94,4,0,5,0.00
2013-6-5,82.6,74.9,69.8,73.4,70.4,68.7,98,87,68,30.03,29.87,6,0,7,1.25
2013-6-6,76.3,71.4,68.4,73.0,69.5,67.3,100,94,84,29.94,29.75,2,0,2,0.01
2013-6-7,82.0,71.3,66.4,75.4,68.6,65.8,99,92,67,29.88,29.70,5,0,8,0.16
2013-6-8,81.0,72.9,64.8,72.1,67.8,64.2,99,85,67,30.09,29.88,3,0,4,0.00
2013-6-9,81.9,72.9,67.8,75.2,70.2,66.9,99,91,75,30.11,30.00,6,0,6,0.23
2013-6-10,76.8,70.3,67.6,76.3,69.5,65.5,100,97,82,30.05,29.96,6,0,7,0.18
2013-6-11,87.1,78.0,68.7,78.4,72.5,68.4,100,85,63,30.07,29.96,5,0,7,0.00
2013-6-12,91.4,80.4,71.8,79.2,74.5,70.7,98,83,61,30.06,29.97,6,0,6,0.00
2013-6-13,89.1,78.8,66.4,77.2,72.1,64.2,98,81,58,29.98,29.75,10,0,16,0.61
2013-6-14,82.6,73.9,65.7,71.1,64.5,57.2,99,76,44,30.01,29.84,8,0,11,0.00
2013-6-15,84.0,73.4,62.8,68.9,62.7,59.0,93,71,49,30.14,30.01,4,0,6,0.00
2013-6-16,84.9,74.3,63.3,75.2,68.1,61.2,96,82,65,30.16,30.02,7,0,6,0.00
2013-6-17,82.4,72.1,66.9,77.0,70.4,65.5,100,95,79,30.12,29.94,7,0,13,1.35
2013-6-18,81.9,72.5,66.6,77.7,70.9,66.0,100,95,77,29.99,29.86,6,0,7,0.17
2013-6-19,79.9,73.3,67.6,73.4,69.0,66.9,99,87,69,30.09,29.91,6,0,8,0.00
2013-6-20,81.9,73.5,65.5,72.1,67.3,64.8,100,82,58,30.19,30.08,7,0,10,0.00
2013-6-21,83.3,74.1,64.6,72.5,65.7,63.3,97,77,54,30.25,30.15,6,0,8,0.00
2013-6-22,83.7,73.9,63.7,68.5,65.0,61.3,96,76,52,30.23,30.09,8,0,9,0.00
2013-6-23,83.3,73.9,66.7,73.6,69.2,65.7,98,86,68,30.22,30.10,3,0,4,0.00
2013-6-24,83.7,75.3,68.9,75.0,70.8,68.2,99,87,67,30.23,30.12,0,0,0,0.00
2013-6-25,87.3,76.6,68.4,75.7,70.9,67.6,99,84,62,30.17,30.04,0,0,0,0.00
2013-6-26,85.8,77.5,70.0,78.6,73.1,68.9,100,87,68,30.10,29.94,0,0,0,0.53
2013-6-27,85.1,78.9,72.5,78.1,73.8,71.2,97,85,70,30.00,29.81,0,0,0,0.19
2013-6-28,87.6,78.5,71.1,79.7,73.4,67.8,100,86,57,29.89,29.66,0,0,0,0.01
2013-6-29,84.6,75.8,70.3,77.2,71.5,67.8,100,87,64,29.74,29.66,0,0,0,0.11
2013-6-30,86.7,74.9,67.6,73.9,69.0,65.8,99,83,56,29.81,29.70,0,0,0,0.00
2013-7-1,83.1,73.7,66.6,74.3,69.6,64.6,97,87,71,29.92,29.78,0,0,0,0.00
2013-7-2,84.6,75.5,69.3,75.2,70.1,67.6,97,84,66,30.09,29.91,0,0,0,0.00
2013-7-3,75.7,71.2,67.5,73.8,69.8,66.2,99,96,87,30.18,30.05,0,0,0,0.99
2013-7-4,74.8,70.1,67.5,74.8,70.1,67.1,100,100,98,30.18,30.08,0,0,0,0.68
2013-7-5,79.7,71.4,68.4,74.8,70.4,67.6,100,97,80,30.22,30.13,0,0,0,0.49
2013-7-6,78.6,72.6,68.9,77.2,71.7,68.5,100,97,86,30.17,30.08,0,0,0,0.29
2013-7-7,77.9,73.1,70.2,75.0,72.2,69.8,100,97,88,30.19,30.11,0,0,0,0.13
2013-7-8,85.8,75.9,68.2,77.4,72.2,67.8,100,89,68,30.21,30.11,0,0,0,0.00
2013-7-9,87.6,77.4,70.2,78.8,73.7,69.6,99,89,69,30.19,30.06,0,0,0,0.00
2013-7-10,85.5,75.7,72.1,78.6,73.5,71.1,100,93,72,30.12,29.97,0,0,0,0.31
2013-7-11,77.4,73.6,71.6,74.1,72.3,70.9,99,96,85,29.99,29.88,0,0,0,0.10
2013-7-12,85.3,74.2,68.7,78.6,71.7,66.7,100,93,70,29.96,29.86,0,0,0,0.19
2013-7-13,75.7,71.2,67.1,72.7,69.5,66.2,99,95,88,30.07,29.95,0,0,0,0.01
2013-7-14,82.8,74.6,70.2,76.1,72.3,69.4,100,93,77,30.20,30.05,0,0,0,0.13
2013-7-15,82.4,74.8,70.2,75.9,72.1,69.8,99,92,72,30.29,30.19,0,0,0,0.09
2013-7-16,84.6,76.1,69.4,77.2,71.3,68.7,100,86,63,30.32,30.24,0,0,0,0.01
2013-7-17,89.4,75.6,68.9,79.0,71.1,67.6,100,87,60,30.29,30.13,0,0,0,0.80
2013-7-18,86.5,76.0,67.5,78.1,71.6,67.1,100,87,65,30.21,30.06,0,0,0,0.03
2013-7-19,87.8,78.6,71.1,78.8,73.4,70.3,100,85,63,30.13,29.98,0,0,0,0.00
2013-7-20,86.2,74.9,71.1,77.9,72.2,69.1,99,92,74,30.05,29.96,0,0,0,0.06
2013-7-21,71.8,71.4,71.2,71.4,71.1,70.9,99,99,99,30.03,30.00,0,0,0,0.00
2013-7-24,82.4,79.1,74.7,76.3,73.5,71.6,94,83,75,29.91,29.81,0,0,0,0.00
2013-7-25,87.8,77.9,70.2,76.5,70.5,66.7,96,79,59,30.00,29.84,0,0,0,0.00
2013-7-26,86.0,74.8,68.4,78.6,71.6,67.3,98,90,72,30.06,29.98,0,0,0,0.03
2013-7-27,79.3,74.2,69.6,74.7,71.4,68.7,100,91,78,30.02,29.92,0,0,0,0.00
2013-7-28,84.4,75.4,67.5,75.6,70.4,66.9,100,85,64,30.04,29.94,0,0,0,0.00
2013-7-29,83.8,75.6,68.2,70.7,65.1,53.8,96,72,38,30.17,30.03,0,0,0,0.00
2013-7-30,89.1,75.1,62.4,69.3,64.1,59.9,97,72,43,30.21,30.11,0,0,0,0.00
2013-7-31,75.0,72.5,69.4,73.9,70.6,66.2,99,94,77,30.15,29.99,0,0,0,0.62
2013-8-1,82.0,75.3,69.6,76.1,72.3,69.3,100,91,74,30.02,29.91,0,0,0,0.01
2013-8-2,85.6,76.6,67.8,76.8,69.0,64.2,98,79,54,30.04,29.94,0,0,0,0.00
2013-8-3,84.9,76.1,67.1,73.9,70.3,66.2,100,83,63,30.07,30.00,0,0,0,0.00
2013-8-4,86.2,79.2,73.8,75.7,71.8,68.2,95,79,61,30.04,29.96,0,0,0,0.00
2013-8-5,84.4,76.8,69.6,76.1,70.9,65.8,89,82,72,30.05,29.97,0,0,0,0.00
2013-8-6,86.4,77.5,72.0,77.2,72.5,68.9,97,85,58,30.02,29.95,0,0,0,0.02
2013-8-7,81.1,75.3,72.7,78.6,74.0,71.6,100,96,83,30.06,29.98,0,0,0,0.99
2013-8-8,78.6,74.6,71.2,77.7,73.8,70.9,100,98,90,30.07,30.00,0,0,0,0.06
2013-8-9,85.1,78.0,71.8,79.0,74.2,71.6,100,89,69,30.10,30.01,0,0,0,0.00
2013-8-10,88.5,77.4,71.4,79.3,73.7,70.9,100,89,69,30.13,30.06,0,0,0,0.13
2013-8-11,87.1,77.7,70.5,77.9,72.9,70.2,100,86,66,30.18,30.06,0,0,0,0.00
2013-8-12,88.3,77.0,71.6,78.6,73.5,70.9,99,90,68,30.12,30.00,0,0,0,0.16
2013-8-13,83.8,76.4,70.5,76.3,72.5,70.2,100,89,68,30.04,29.89,0,0,0,0.00
2013-8-14,82.0,74.2,68.9,75.6,71.7,68.4,99,92,72,30.02,29.89,0,0,0,0.41
2013-8-15,71.1,68.1,66.4,68.5,64.8,60.3,99,90,78,30.10,30.00,0,0,0,0.00
2013-8-16,66.4,63.6,61.3,63.9,61.7,59.9,99,94,81,30.14,30.05,0,0,0,0.33
2013-8-17,65.1,62.7,60.6,65.1,62.2,60.1,100,98,94,30.16,30.10,0,0,0,0.14
2013-8-18,74.3,69.4,65.1,72.3,68.8,65.1,100,98,90,30.22,30.12,0,0,0,0.56
2013-8-19,77.4,72.3,69.6,75.2,71.3,69.6,100,97,86,30.16,30.06,0,0,0,0.24
2013-8-20,79.0,73.6,70.5,74.8,72.0,70.0,99,95,84,30.18,30.09,0,0,0,0.00
2013-8-21,78.3,72.3,67.5,75.0,71.2,67.1,100,96,87,30.25,30.12,0,0,0,0.69
2013-8-22,84.0,75.4,68.0,77.7,71.3,67.6,100,88,64,30.18,30.05,0,0,0,0.00
2013-8-23,85.8,76.3,68.4,75.6,70.9,68.0,100,85,62,30.10,29.98,0,0,0,0.00
2013-8-24,81.1,73.8,68.7,73.0,69.5,66.4,99,87,70,30.25,30.02,0,0,0,0.02
2013-8-25,78.8,71.3,64.0,67.8,64.3,61.0,94,79,61,30.37,30.25,0,0,0,0.00
2013-8-26,78.3,68.8,59.2,66.2,62.0,58.6,99,81,57,30.33,30.17,0,0,0,0.00
2013-8-27,82.8,71.7,61.2,71.1,65.6,60.3,100,83,57,30.20,30.05,0,0,0,0.00
2013-8-28,85.5,75.3,65.5,75.4,69.9,64.9,100,85,63,30.08,29.98,0,0,0,0.00
2013-8-29,88.0,79.2,70.0,75.9,72.3,69.1,98,81,61,30.03,29.92,0,0,0,0.00
2013-8-30,82.4,78.3,73.9,76.5,74.2,72.1,95,87,78,30.02,29.92,0,0,0,0.00
2013-8-31,85.5,77.0,70.5,79.0,73.7,70.2,100,90,71,29.99,29.88,0,0,0,0.05
2013-9-1,87.1,74.5,71.1,79.3,72.8,69.4,100,95,71,29.95,29.87,0,0,0,0.08
2013-9-2,76.5,71.7,68.0,72.7,70.3,67.6,100,96,83,29.99,29.88,0,0,0,0.30
2013-9-3,85.3,76.2,69.6,78.3,71.8,69.3,100,87,65,29.99,29.89,0,0,0,0.01
2013-9-4,84.6,75.6,68.2,73.4,69.7,67.3,100,83,61,30.10,29.97,0,0,0,0.00
2013-9-5,86.0,75.9,68.5,74.1,69.1,67.1,97,81,57,30.14,30.06,0,0,0,0.00
2013-9-6,83.8,74.6,67.6,71.6,68.1,65.1,98,81,58,30.16,30.05,0,0,0,0.00
2013-9-7,84.0,72.7,64.2,70.9,66.8,63.7,99,83,58,30.14,30.02,0,0,0,0.00
2013-9-8,87.3,74.8,64.9,74.5,68.4,64.4,100,82,58,30.04,29.95,0,0,0,0.00
2013-9-9,87.4,76.3,68.7,74.5,69.9,67.5,97,82,60,30.12,30.00,0,0,0,0.00
2013-9-10,85.5,75.6,68.0,74.8,69.5,67.3,99,83,62,30.23,30.11,0,0,0,0.00
2013-9-11,86.4,74.8,65.7,73.6,67.1,63.1,99,79,51,30.24,30.11,0,0,0,0.00
2013-9-12,86.4,73.4,65.1,75.4,68.5,63.7,98,86,58,30.12,29.92,0,0,0,0.10
2013-9-13,83.3,75.1,66.4,70.3,65.1,57.6,94,73,52,29.94,29.82,0,0,0,0.00
2013-9-14,77.0,67.3,55.2,61.2,56.9,52.9,93,71,49,30.09,29.91,0,0,0,0.00
2013-9-15,80.2,70.7,61.3,71.2,65.8,59.5,95,85,70,30.18,30.09,0,0,0,0.00
2013-9-16,84.6,74.2,66.9,73.6,66.1,60.4,98,79,46,30.16,30.06,0,0,0,0.00
2013-9-17,75.4,70.4,66.0,65.8,63.3,60.8,88,79,69,30.24,30.11,0,0,0,0.00
2013-9-18,73.9,68.2,63.5,64.6,61.6,58.8,94,80,69,30.26,30.15,0,0,0,0.00
2013-9-19,79.5,68.9,59.0,66.6,62.2,58.3,98,81,58,30.21,30.09,0,0,0,0.00
2013-9-20,83.1,71.9,61.3,70.0,65.1,60.4,99,81,58,30.10,29.93,0,0,0,0.00
2013-9-21,72.0,67.7,64.2,70.7,66.3,63.7,99,95,86,29.95,29.74,0,0,0,0.58
2013-9-22,75.7,69.4,61.9,66.4,62.4,59.2,98,79,61,29.90,29.78,0,0,0,0.01
2013-9-23,77.4,67.5,57.9,66.9,61.4,57.4,99,82,61,30.04,29.90,0,0,0,0.00
2013-9-24,68.4,65.8,63.9,64.2,62.9,61.0,98,90,79,30.05,29.91,0,0,0,0.01
2013-9-25,65.3,63.9,62.1,64.9,63.2,61.2,99,98,94,29.92,29.85,0,0,0,0.33
2013-9-26,73.0,65.7,59.4,66.2,62.4,58.8,99,90,72,30.04,29.90,0,0,0,0.00
2013-9-27,74.3,66.2,57.4,64.2,59.6,55.9,97,81,57,30.16,30.04,0,0,0,0.01
2013-9-28,72.0,63.2,56.8,59.7,56.7,54.7,94,81,59,30.25,30.14,0,0,0,0.00
2013-9-29,73.2,62.5,55.0,59.2,55.9,52.5,95,80,57,30.18,30.05,0,0,0,0.00
2013-9-30,74.8,63.1,54.1,63.7,58.1,53.4,99,85,62,30.13,30.02,0,0,0,0.00
2013-10-1,76.6,65.6,56.5,65.5,60.8,55.8,100,86,60,30.19,30.08,0,0,0,0.00
2013-10-2,79.2,67.4,57.6,67.1,61.7,57.0,100,83,57,30.19,30.08,0,0,0,0.00
2013-10-3,80.4,69.1,61.0,67.1,62.8,60.1,99,82,57,30.17,30.08,0,0,0,0.00
2013-10-4,81.7,68.9,60.1,68.5,63.6,59.5,100,85,58,30.19,30.10,0,0,0,0.00
2013-10-5,82.0,70.3,61.3,69.3,64.4,60.8,100,83,58,30.15,30.03,0,0,0,0.00
2013-10-6,81.9,69.6,61.5,70.3,65.0,61.0,100,87,61,30.05,29.87,0,0,0,1.45
2013-10-7,69.6,63.5,57.0,64.8,58.7,52.2,99,85,64,29.98,29.84,0,0,0,0.14
2013-10-8,70.2,63.1,56.5,61.7,56.1,50.9,90,78,68,30.17,29.98,0,0,0,0.00
2013-10-9,69.8,62.0,54.9,58.8,53.8,46.8,94,75,56,30.22,30.13,0,0,0,0.00
2013-10-10,74.7,63.0,52.5,61.7,56.9,51.6,99,82,57,30.18,30.04,0,0,0,0.00
2013-10-11,75.0,64.1,54.0,60.3,55.5,50.9,99,77,44,30.09,29.99,0,0,0,0.00
2013-10-12,75.9,65.3,55.8,61.7,57.9,54.3,98,79,52,30.12,30.01,0,0,0,0.00
2013-10-13,77.2,67.4,58.6,66.4,60.9,57.0,96,81,56,30.21,30.10,0,0,0,0.00
2013-10-14,72.9,66.7,62.8,64.0,62.1,60.8,96,86,69,30.22,30.13,0,0,0,0.00
2013-10-15,66.7,63.9,60.1,61.5,60.0,57.9,93,87,78,30.17,30.07,0,0,0,0.00
2013-10-16,72.0,63.7,55.8,64.4,60.0,55.2,99,88,69,30.10,29.99,0,0,0,0.00
2013-10-17,70.3,65.3,61.2,69.4,64.1,58.8,99,96,92,30.00,29.91,0,0,0,0.14
2013-10-18,67.3,58.9,51.6,58.8,54.5,50.9,98,86,59,30.06,29.95,0,0,0,0.00
2013-10-19,60.6,57.4,54.0,59.4,55.8,53.1,99,95,85,30.02,29.96,0,0,0,0.05
2013-10-20,63.9,53.6,44.8,54.5,46.3,37.9,99,79,39,30.11,30.01,0,0,0,0.00
2013-10-21,67.6,55.6,44.4,59.2,51.8,43.0,99,88,67,30.18,30.05,0,0,0,0.00
2013-10-22,66.4,60.0,54.7,59.4,56.6,52.0,99,89,66,30.07,29.88,0,0,0,0.01
2013-10-23,58.5,53.2,45.9,52.7,44.7,36.5,95,74,48,30.14,29.88,0,0,0,0.00
2013-10-24,59.7,49.1,37.9,44.6,39.9,36.1,96,73,46,30.25,30.12,0,0,0,0.00
2013-10-25,52.3,45.5,36.5,43.5,33.3,28.2,82,64,41,30.42,30.25,0,0,0,0.00
2013-10-26,57.4,44.3,33.6,43.0,36.9,31.5,93,77,47,30.40,30.22,0,0,0,0.00
2013-10-27,64.9,52.6,40.8,57.2,48.2,39.2,97,86,67,30.23,30.15,0,0,0,0.00
2013-10-28,63.0,57.7,53.6,59.5,56.0,52.5,99,94,80,30.31,30.16,0,0,0,0.02
2013-10-29,71.1,59.9,51.4,61.5,56.4,50.9,100,89,64,30.37,30.26,0,0,0,0.00
2013-10-30,72.7,61.8,53.8,62.2,57.9,53.2,100,88,64,30.34,30.18,0,0,0,0.00
2013-10-31,72.7,63.9,55.8,65.5,59.9,54.1,97,87,75,30.21,29.90,0,0,0,0.00
2013-11-1,70.0,64.8,59.2,65.8,60.3,48.6,99,86,67,29.91,29.73,0,0,0,0.30
2013-11-2,65.8,56.2,46.6,52.7,46.0,39.9,98,71,47,30.10,29.83,0,0,0,0.00
2013-11-3,60.8,50.5,43.5,44.6,41.5,36.9,91,73,42,30.35,30.09,0,0,0,0.00
2013-11-4,59.7,49.6,41.2,45.0,40.6,37.6,93,73,48,30.48,30.35,0,0,0,0.00
2013-11-5,61.9,51.4,42.8,46.4,39.4,34.7,78,65,44,30.51,30.37,0,0,0,0.00
2013-11-6,68.7,57.8,50.2,59.4,54.0,46.8,97,88,71,30.38,30.14,0,0,0,0.01
2013-11-7,62.6,55.3,45.1,61.2,49.4,34.3,99,82,59,30.26,30.06,0,0,0,0.09
2013-11-8,57.9,46.7,38.5,37.4,32.9,25.7,83,61,31,30.38,30.25,0,0,0,0.00
2013-11-9,57.4,47.1,37.0,44.1,38.9,34.2,90,74,46,30.41,30.28,0,0,0,0.00
2013-11-10,66.0,54.6,45.9,45.5,42.9,38.7,91,67,43,30.34,30.22,0,0,0,0.00
2013-11-11,61.5,50.8,40.6,41.5,37.6,33.1,86,63,37,30.35,30.22,0,0,0,0.00
2013-11-12,60.1,44.7,32.2,44.6,34.9,18.5,95,70,47,30.50,30.19,1,0,2,0.00
2013-11-13,46.2,35.2,25.2,24.3,19.7,11.5,81,56,27,30.64,30.49,0,0,0,0.00
2013-11-14,54.0,38.7,25.9,27.1,23.9,19.9,87,60,27,30.57,30.37,0,0,0,0.00
2013-11-15,52.0,46.5,38.1,47.5,39.6,26.2,97,78,55,30.38,30.20,0,0,0,0.08
2013-11-16,63.7,54.9,45.5,58.3,53.0,44.8,100,94,80,30.28,30.16,0,0,0,0.00
2013-11-17,66.4,61.5,57.9,66.4,60.6,56.1,100,97,92,30.20,29.96,0,0,0,0.03
2013-11-18,68.4,62.1,50.7,67.5,49.3,34.7,100,67,36,30.06,29.91,0,0,4,0.01
2013-11-19,57.9,49.3,41.5,38.5,34.4,30.0,71,57,43,30.22,30.05,1,0,1,0.00
2013-11-20,54.1,47.5,40.6,37.4,33.1,28.9,68,57,49,30.38,30.22,6,0,7,0.00
2013-11-21,55.2,51.0,47.7,48.0,43.6,36.0,89,76,59,30.45,30.35,0,0,0,0.00
2013-11-22,62.6,56.0,50.7,58.5,53.6,48.0,98,92,83,30.40,30.21,1,0,1,0.04
2013-11-23,59.5,52.5,39.9,59.0,46.8,29.8,98,82,59,30.30,30.16,9,0,12,0.00
2013-11-24,44.8,36.5,29.1,30.0,20.6,15.3,71,54,30,30.52,30.28,8,0,8,0.00
2013-11-25,44.6,37.1,28.8,25.7,19.5,12.7,68,49,34,30.55,30.27,0,0,0,0.00
2013-11-26,47.5,39.0,33.1,47.3,37.7,25.7,99,95,55,30.27,29.71,0,0,0,0.80
2013-11-27,43.0,34.2,26.8,42.4,28.6,19.2,98,80,64,30.34,29.72,24,1,24,0.11
2013-11-28,45.7,32.2,21.6,26.8,22.0,18.3,87,68,38,30.55,30.34,5,0,6,0.00
2013-11-29,56.5,39.5,26.8,31.6,25.5,16.7,92,63,21,30.61,30.50,6,0,7,0.00
2013-11-30,51.1,41.5,34.9,30.2,28.3,26.6,74,60,39,30.61,30.40,9,0,12,0.00
2013-12-1,46.8,41.9,39.7,33.4,29.8,28.4,67,62,59,30.40,30.32,2,0,2,0.00